Temp
-1 -1 -1 -1 -1 -1 -1 -2 -2 -1 -0 0 1 1 1 1 -0 -0 1 1 -0 -0 0 2 5 7 5 6 6 1 3 1 2 5 7 7 7 9 11 10 8 7 6 7 7 8 8 12 10 12 13 11 11 11
-1 -1 -1 -1 -1 -1 -1 -1 -2 -1 -0 0 0 1 1 1 1 0 0 0 1 0 -1 -0 2 4 5 7 5 2 5 2 3 4 6 8 6 8 10 10 9 9 11 11 10 11 9 10 11 10 9 11 9 9
-1 -1 -1 -1 -1 -1 -1 -2 -1 -1 -1 -0 0 1 1 1 0 0 0 1 1 -0 -1 -0 1 2 3 5 6 2 1 2 2 4 5 4 5 9 9 10 11 9 8 9 8 9 9 9 7 8 7 8 8 8
-1 -1 -1 -1 -1 -0 -0 -0 -1 -1 -1 -1 -1 0 1 1 1 1 1 1 1 -1 -0 -2 -1 0 1 3 4 5 4 3 2 2 2 3 5 5 9 9 9 9 8 8 7 8 7 7 7 7 6 6 6 6
-1 -1 -1 -1 -1 -1 -0 0 1 1 -0 -1 -1 -1 -1 -0 -0 0 0 -0 -0 1 0 -1 -1 -2 0 1 2 3 3 1 1 1 1 2 4 5 4 7 7 7 7 6 7 9 9 7 6 6 6 6 6 6
-2 -1 -1 -1 -1 -1 -0 -0 0 1 1 -0 -1 -1 -1 -1 -0 -1 -2 -2 -2 -1 0 0 -2 -2 -2 -1 -0 0 -0 -1 -0 0 1 2 1 3 4 5 7 6 5 6 6 5 6 5 5 5 5 5 5 4
-2 -2 -1 -1 -1 -0 -0 -0 0 0 0 1 0 1 2 2 2 2 -1 -2 -1 1 -1 0 -0 -2 -2 -1 -2 -2 -1 -1 1 0 1 3 3 4 5 6 6 4 4 3 3 4 4 4 5 4 4 4 4 3
-2 -2 -2 -1 -1 -0 -0 0 0 1 1 1 1 1 2 2 2 2 2 1 1 1 -1 -0 -1 -1 -1 -0 -0 -0 -1 -1 -2 0 1 3 3 4 4 5 4 3 3 3 2 2 3 2 2 3 3 2 2 3
-2 -2 -2 -1 -1 -1 -0 -0 1 1 1 2 2 3 3 3 2 0 1 2 2 2 1 0 1 -0 -2 -2 -2 -1 -0 0 -2 2 2 2 3 3 5 4 3 2 3 2 1 1 2 1 2 2 2 2 2 2
-2 -2 -2 -2 -1 -1 -1 0 1 1 2 2 3 3 0 0 1 2 2 2 2 -0 -1 -0 -1 -0 -0 -0 -0 1 1 2 2 1 1 3 3 2 2 1 1 -0 -1 -2 -0 2 1 1 1 1 2 2 2 2
-2 -2 -2 -2 -1 -1 -1 -0 1 2 2 2 1 -1 0 1 1 1 0 1 2 1 0 -1 1 1 -1 1 0 -0 1 1 3 1 3 2 3 3 -0 -2 -2 -2 -2 -2 -2 -2 -3 -3 -2 -0 1 1 1 1
-3 -3 -3 -2 -2 -1 -1 -0 0 1 0 -0 -0 0 0 -0 1 1 0 1 2 0 0 2 0 0 -1 -0 2 1 1 1 2 1 2 2 3 2 -0 -2 -2 -3 -3 -3 -3 -3 -3 -3 -2 -1 -0 0 0 -0
-3 -3 -3 -3 -2 -2 -1 -1 -0 -0 0 -0 -1 -1 1 -0 0 0 -1 1 0 0 -0 0 -1 -0 -0 0 0 1 0 1 0 1 2 4 2 1 -0 -2 -3 -4 -4 -3 -3 -3 -3 -3 -2 -0 0 1 1 1
-3 -3 -2 -3 -3 -2 -2 -1 -0 0 0 -1 -0 -1 -1 -1 -1 -1 -0 -1 -3 -0 0 -0 -1 0 -1 0 -0 -0 0 1 1 1 3 3 1 -1 -2 -3 -4 -5 -5 -4 -4 -3 -3 -3 -2 -2 -2 -1 -0 0
-3 -3 -3 -3 -3 -3 -2 -1 -1 -0 -1 -2 -0 -2 -2 -4 -4 -4 -4 -3 -3 -1 -0 0 0 1 1 -1 1 0 -1 0 2 3 3 2 -0 -2 -3 -4 -4 -5 -5 -5 -5 -4 -3 -3 -2 -2 -2 -1 -1 -1
-3 -3 -3 -3 -3 -3 -2 -1 -1 -1 -3 -3 -2 -1 -2 -1 -2 -2 -2 -2 -2 -1 -0 1 1 1 1 1 1 1 2 2 2 2 1 -1 -2 -3 -3 -3 -4 -4 -4 -5 -5 -4 -3 -3 -3 -3 -2 -2 -1 -1
-3 -4 -4 -3 -3 -2 -2 -1 -1 -2 -3 -1 -3 -5 -3 -2 -2 -2 -1 -1 -1 0 1 2 1 1 2 1 2 2 2 2 0 -1 -1 -1 -2 -2 -3 -3 -4 -4 -5 -5 -5 -4 -4 -3 -3 -3 -3 -3 -3 -3
-4 -4 -4 -3 -3 -2 -2 -2 -3 -2 -1 -2 -1 -3 -4 -4 -3 -3 -2 -2 -1 0 1 1 1 1 1 1 2 1 -1 -2 -2 -2 -2 -2 -3 -3 -3 -4 -4 -5 -5 -5 -5 -4 -4 -4 -4 -4 -4 -4 -4 -4
-4 -4 -4 -3 -3 -3 -3 -3 -4 -2 -2 -3 -3 -3 -3 -3 -3 -2 -3 -2 -2 -2 -1 -0 0 1 2 2 1 -1 -1 -2 -2 -3 -3 -3 -3 -3 -4 -4 -4 -5 -5 -5 -4 -5 -5 -5 -5 -5 -5 -5 -6 -5
-4 -4 -3 -3 -3 -3 -4 -4 -5 -3 -1 -2 -3 -2 -3 -2 -3 -3 -2 -2 -2 -1 -1 0 1 1 1 0 -0 -0 -1 -2 -3 -3 -4 -3 -3 -3 -4 -4 -4 -4 -5 -5 -4 -5 -5 -5 -5 -5 -5 -6 -6 -6
-4 -4 -3 -4 -4 -4 -4 -4 -3 -3 -4 -3 -3 -3 -1 -3 -2 -2 -2 -2 -2 -0 0 0 -1 0 0 0 -0 -1 -1 -2 -2 -2 -2 -3 -3 -3 -3 -4 -4 -4 -4 -4 -4 -4 -4 -4 -4 -5 -5 -5 -5 -6
-5 -4 -4 -4 -5 -6 -6 -5 -4 -5 -4 -3 -3 -2 -1 -1 -2 -2 -2 -1 -1 -0 -1 -1 -1 -1 -0 -0 -0 -1 -1 -2 -2 -2 -2 -2 -3 -3 -3 -3 -3 -4 -4 -4 -4 -4 -4 -4 -5 -5 -5 -5 -5 -6
-5 -5 -5 -6 -6 -6 -5 -5 -4 -4 -3 -2 -2 -2 -2 -1 -2 -3 -1 -1 -1 -2 -1 -1 -1 -0 -0 -0 -1 -1 -1 -1 -2 -2 -2 -2 -2 -3 -3 -3 -3 -4 -4 -4 -4 -4 -5 -5 -5 -5 -5 -5 -5 -6
-6 -6 -6 -5 -6 -5 -5 -4 -4 -3 -2 -2 -1 -1 -0 -2 -3 -2 -1 0 -2 -2 -2 -2 -1 -1 -1 -1 -1 -1 -1 -1 -2 -2 -2 -2 -3 -3 -3 -3 -4 -4 -4 -4 -4 -5 -4 -5 -5 -5 -5 -5 -5 -6
-7 -6 -6 -6 -6 -5 -5 -4 -3 -2 -3 -2 -2 -1 -1 -3 -2 -2 -1 -0 -4 -4 -4 -2 -2 -3 -2 -2 -2 -1 -1 -1 -2 -2 -2 -3 -3 -3 -4 -3 -4 -4 -4 -5 -5 -5 -5 -5 -5 -5 -5 -5 -5 -5
-6 -8 -7 -7 -7 -5 -4 -5 -4 -4 -3 -3 -2 -3 -3 -2 -2 -1 0 -3 -4 -5 -5 -5 -4 -4 -3 -3 -2 -2 -2 -2 -2 -2 -2 -2 -3 -3 -3 -4 -4 -5 -5 -6 -6 -6 -5 -5 -5 -6 -6 -5 -5 -5
-8 -9 -9 -9 -9 -8 -6 -6 -5 -4 -3 -3 -3 -3 -2 -2 -1 -1 -5 -5 -6 -5 -6 -6 -5 -4 -4 -3 -3 -3 -2 -2 -3 -3 -2 -3 -3 -4 -4 -4 -5 -6 -6 -7 -6 -6 -6 -6 -6 -6 -6 -6 -6 -6
-9 -10 -10 -10 -9 -8 -7 -7 -5 -5 -5 -7 -6 -4 -3 -2 -2 -7 -8 -7 -7 -6 -5 -6 -6 -5 -4 -4 -3 -4 -4 -3 -3 -3 -4 -4 -4 -4 -5 -5 -5 -6 -6 -7 -8 -8 -7 -7 -7 -6 -7 -7 -6 -6
-11 -12 -11 -13 -13 -9 -8 -7 -7 -8 -9 -9 -8 -6 -6 -8 -8 -8 -8 -8 -7 -6 -6 -7 -6 -6 -5 -5 -4 -5 -4 -4 -4 -5 -5 -6 -6 -6 -6 -6 -6 -7 -7 -8 -8 -8 -8 -8 -8 -7 -7 -7 -7 -7
-12 -12 -11 -13 -13 -10 -9 -9 -9 -11 -11 -10 -10 -10 -9 -8 -9 -8 -8 -8 -8 -8 -7 -7 -7 -7 -7 -6 -5 -6 -6 -5 -5 -5 -6 -7 -7 -7 -6 -6 -7 -7 -8 -8 -8 -8 -8 -8 -8 -8 -7 -7 -7 -7
-13 -13 -12 -12 -11 -11 -11 -11 -11 -11 -10 -11 -10 -10 -9 -8 -9 -9 -8 -8 -8 -8 -7 -6 -7 -7 -7 -7 -6 -6 -6 -7 -7 -7 -7 -7 -7 -7 -7 -7 -7 -8 -8 -8 -8 -8 -8 -8 -8 -8 -8 -8 -7 -7
-14 -13 -12 -13 -11 -12 -12 -12 -12 -12 -10 -11 -10 -10 -10 -10 -9 -10 -9 -8 -8 -9 -7 -8 -8 -8 -8 -8 -7 -7 -7 -7 -7 -7 -7 -7 -7 -8 -8 -8 -8 -9 -9 -9 -9 -9 -9 -9 -8 -9 -9 -8 -8 -8
-16 -17 -17 -15 -13 -12 -13 -13 -11 -12 -12 -12 -10 -11 -10 -10 -9 -11 -10 -10 -10 -10 -10 -10 -9 -8 -8 -8 -8 -8 -8 -8 -8 -8 -9 -9 -9 -9 -8 -9 -9 -9 -9 -9 -9 -9 -9 -9 -9 -9 -9 -9 -9 -8
Height
1305 1300 1294 1289 1283 1276 1271 1264 1255 1250 1255 1262 1269 1277 1285 1294 1301 1309 1316 1322 1328 1329 1325 1321 1324 1326 1333 1344 1353 1369 1376 1384 1389 1390 1391 1393 1394 1397 1394 1400 1411 1415 1428 1431 1433 1429 1422 1412 1422 1417 1412 1416 1419 1420
1308 1304 1299 1294 1289 1282 1277 1272 1264 1256 1255 1258 1265 1273 1281 1289 1296 1305 1310 1315 1321 1331 1325 1324 1324 1328 1335 1343 1349 1362 1362 1373 1378 1386 1383 1386 1396 1395 1387 1392 1403 1405 1396 1401 1408 1404 1410 1409 1411 1414 1416 1418 1420 1422
1311 1308 1304 1300 1295 1290 1286 1280 1274 1268 1262 1259 1263 1273 1279 1288 1297 1303 1309 1317 1325 1328 1331 1326 1327 1330 1334 1339 1346 1354 1365 1367 1372 1377 1382 1389 1390 1386 1385 1385 1386 1398 1402 1402 1410 1407 1409 1411 1414 1416 1418 1418 1419 1422
1315 1312 1309 1305 1301 1297 1293 1290 1285 1280 1275 1271 1269 1273 1280 1287 1296 1302 1306 1308 1315 1319 1330 1340 1333 1335 1337 1340 1344 1347 1354 1364 1370 1378 1382 1385 1387 1391 1383 1382 1385 1393 1400 1400 1405 1407 1411 1412 1414 1415 1418 1419 1420 1421
1318 1315 1313 1310 1307 1304 1300 1297 1295 1291 1287 1284 1282 1281 1280 1286 1290 1296 1303 1307 1310 1315 1325 1338 1339 1339 1340 1342 1344 1347 1354 1360 1370 1379 1384 1386 1386 1390 1394 1391 1388 1394 1394 1400 1398 1401 1401 1406 1413 1415 1417 1417 1416 1420
1322 1320 1317 1315 1312 1309 1307 1304 1302 1299 1296 1294 1294 1292 1292 1294 1296 1299 1307 1312 1311 1315 1323 1336 1349 1349 1347 1347 1349 1353 1358 1364 1368 1375 1382 1386 1388 1389 1391 1390 1389 1393 1395 1396 1400 1404 1405 1410 1414 1415 1416 1418 1419 1422
1325 1323 1322 1319 1317 1314 1312 1310 1307 1305 1305 1303 1302 1300 1301 1302 1304 1304 1311 1316 1317 1318 1326 1339 1350 1355 1354 1354 1355 1363 1365 1368 1370 1377 1382 1384 1386 1386 1386 1384 1389 1394 1396 1398 1401 1404 1407 1409 1411 1413 1415 1417 1418 1420
1329 1327 1325 1324 1322 1319 1316 1314 1312 1310 1308 1308 1308 1307 1307 1307 1308 1311 1315 1317 1319 1320 1329 1339 1353 1356 1357 1359 1364 1367 1368 1370 1375 1380 1384 1383 1386 1387 1386 1387 1391 1393 1395 1398 1400 1402 1405 1407 1409 1410 1411 1413 1414 1415
1332 1330 1329 1328 1326 1324 1322 1320 1317 1315 1313 1311 1311 1311 1312 1312 1314 1319 1319 1320 1322 1326 1332 1341 1344 1355 1362 1364 1366 1368 1369 1374 1380 1378 1381 1384 1384 1383 1383 1386 1390 1393 1395 1398 1400 1401 1402 1404 1405 1407 1408 1409 1410 1410
1335 1333 1332 1331 1330 1329 1326 1324 1322 1320 1317 1316 1315 1313 1318 1320 1320 1320 1322 1323 1325 1331 1337 1347 1351 1355 1361 1364 1368 1369 1371 1373 1373 1382 1384 1380 1379 1385 1386 1388 1391 1392 1393 1394 1396 1398 1399 1400 1402 1403 1404 1405 1405 1406
1337 1335 1334 1334 1334 1332 1330 1328 1324 1321 1320 1319 1320 1324 1324 1322 1322 1323 1327 1330 1334 1339 1345 1352 1352 1353 1360 1360 1365 1370 1370 1373 1368 1378 1376 1378 1376 1381 1386 1388 1389 1391 1392 1393 1394 1394 1395 1396 1398 1400 1401 1402 1403 1404
1340 1338 1338 1337 1336 1335 1334 1332 1329 1325 1325 1326 1327 1327 1327 1328 1330 1333 1338 1338 1337 1342 1348 1349 1355 1356 1360 1362 1363 1369 1370 1372 1371 1380 1377 1373 1377 1381 1385 1387 1388 1389 1390 1393 1393 1394 1393 1393 1393 1395 1397 1398 1399 1401
1343 1342 1342 1341 1340 1339 1337 1335 1333 1331 1329 1329 1330 1331 1334 1338 1339 1339 1343 1341 1342 1346 1349 1353 1356 1357 1360 1363 1368 1369 1372 1373 1379 1377 1371 1369 1376 1380 1384 1386 1387 1388 1390 1392 1393 1392 1391 1390 1389 1390 1392 1394 1396 1397
1349 1347 1346 1345 1343 1341 1339 1338 1335 1333 1332 1333 1335 1339 1341 1342 1345 1347 1346 1348 1352 1351 1352 1355 1356 1358 1362 1365 1369 1371 1376 1375 1371 1371 1365 1370 1377 1381 1383 1385 1388 1390 1391 1391 1389 1389 1389 1389 1389 1390 1390 1391 1392 1394
1355 1352 1350 1348 1346 1344 1342 1340 1338 1337 1336 1339 1341 1347 1349 1354 1354 1353 1352 1352 1353 1354 1355 1356 1358 1360 1363 1368 1369 1371 1373 1370 1365 1363 1366 1371 1376 1380 1383 1385 1385 1387 1387 1388 1389 1390 1390 1390 1390 1390 1390 1391 1392 1394
1357 1356 1353 1351 1349 1346 1344 1343 1341 1340 1342 1345 1348 1350 1354 1353 1354 1354 1354 1355 1356 1356 1356 1356 1358 1360 1362 1362 1365 1363 1360 1360 1360 1363 1368 1372 1375 1377 1380 1381 1383 1385 1387 1388 1389 1390 1390 1390 1390 1390 1391 1392 1393 1395
1360 1357 1355 1353 1351 1349 1346 1346 1344 1345 1347 1349 1353 1353 1354 1354 1354 1356 1356 1357 1357 1358 1357 1356 1357 1357 1360 1358 1358 1357 1358 1359 1364 1366 1369 1372 1374 1377 1379 1381 1383 1385 1386 1388 1389 1390 1390 1391 1391 1392 1393 1394 1395 1396
1362 1360 1357 1355 1353 1351 1349 1349 1350 1351 1351 1353 1353 1355 1355 1355 1356 1356 1357 1357 1358 1358 1358 1357 1358 1357 1356 1356 1354 1358 1362 1364 1364 1367 1370 1372 1374 1377 1379 1381 1384 1386 1387 1388 1390 1390 1391 1391 1392 1393 1393 1394 1395 1395
1365 1362 1360 1358 1356 1354 1354 1353 1354 1354 1355 1355 1355 1355 1355 1355 1356 1357 1357 1358 1358 1359 1360 1360 1358 1354 1354 1355 1358 1360 1362 1364 1365 1368 1370 1372 1374 1376 1380 1383 1385 1387 1388 1389 1390 1391 1391 1392 1393 1394 1394 1394 1394 1394
1365 1363 1361 1359 1357 1357 1356 1357 1356 1356 1355 1357 1356 1356 1356 1356 1355 1356 1357 1358 1359 1359 1359 1357 1356 1355 1355 1355 1356 1357 1359 1361 1364 1368 1371 1373 1376 1378 1380 1382 1384 1386 1387 1389 1390 1390 1391 1392 1392 1392 1393 1393 1393 1393
1364 1363 1360 1358 1357 1357 1358 1357 1357 1357 1356 1356 1356 1356 1355 1356 1356 1356 1356 1357 1359 1357 1354 1354 1355 1355 1355 1356 1357 1358 1360 1362 1364 1367 1370 1373 1375 1378 1380 1381 1382 1384 1385 1387 1388 1389 1389 1390 1391 1391 1391 1391 1392 1392
1363 1362 1360 1358 1358 1357 1358 1358 1358 1358 1358 1356 1356 1355 1353 1354 1354 1355 1355 1356 1355 1353 1353 1352 1353 1354 1355 1357 1358 1359 1361 1363 1365 1367 1368 1370 1372 1375 1377 1379 1381 1382 1383 1384 1385 1386 1387 1388 1389 1389 1389 1390 1390 1390
1362 1361 1360 1359 1360 1358 1360 1357 1358 1357 1356 1354 1353 1352 1351 1350 1351 1353 1352 1351 1350 1349 1350 1351 1351 1352 1354 1356 1357 1359 1360 1362 1364 1366 1367 1369 1371 1373 1375 1377 1379 1380 1381 1382 1383 1384 1385 1386 1386 1386 1387 1387 1388 1388
1361 1361 1360 1359 1359 1359 1358 1357 1356 1355 1353 1352 1349 1347 1345 1348 1351 1351 1348 1345 1346 1346 1347 1348 1349 1351 1353 1354 1356 1357 1359 1361 1363 1364 1366 1368 1370 1372 1374 1375 1376 1378 1379 1380 1381 1382 1382 1382 1383 1383 1383 1384 1385 1385
1363 1363 1362 1359 1359 1358 1357 1355 1354 1351 1350 1349 1346 1344 1345 1348 1347 1348 1343 1342 1344 1344 1345 1345 1347 1348 1350 1352 1353 1355 1357 1359 1361 1363 1364 1366 1368 1370 1371 1372 1374 1375 1377 1378 1378 1379 1379 1380 1380 1380 1380 1381 1382 1383
1360 1363 1363 1361 1360 1358 1355 1354 1353 1351 1350 1348 1345 1346 1346 1344 1342 1338 1337 1340 1342 1343 1344 1344 1345 1346 1347 1349 1350 1352 1354 1356 1358 1360 1361 1363 1365 1366 1367 1369 1370 1372 1374 1374 1375 1376 1376 1377 1377 1377 1378 1378 1379 1379
1360 1362 1363 1363 1362 1361 1358 1355 1353 1350 1346 1345 1344 1345 1343 1340 1336 1337 1340 1340 1341 1341 1342 1342 1342 1344 1345 1346 1347 1349 1351 1353 1355 1357 1358 1360 1361 1363 1365 1366 1367 1369 1370 1371 1372 1373 1374 1374 1375 1375 1375 1375 1376 1376
1359 1361 1362 1362 1361 1360 1358 1356 1351 1348 1348 1350 1349 1342 1338 1333 1335 1341 1340 1341 1341 1340 1339 1339 1339 1340 1341 1343 1344 1345 1347 1349 1352 1354 1355 1357 1358 1360 1362 1363 1364 1365 1367 1368 1369 1369 1370 1371 1371 1372 1372 1372 1372 1373
1358 1359 1361 1361 1360 1358 1354 1351 1350 1351 1352 1352 1349 1344 1341 1341 1340 1340 1341 1340 1339 1339 1338 1338 1338 1338 1338 1339 1340 1342 1344 1345 1347 1349 1351 1353 1355 1357 1358 1360 1361 1362 1363 1364 1364 1365 1365 1366 1366 1367 1367 1367 1368 1368
1356 1357 1358 1360 1359 1353 1351 1351 1350 1350 1350 1351 1349 1345 1342 1340 1337 1337 1337 1337 1337 1336 1335 1334 1334 1335 1335 1336 1337 1338 1339 1341 1343 1346 1347 1349 1351 1352 1354 1356 1357 1358 1359 1360 1361 1361 1362 1362 1363 1363 1363 1363 1364 1364
1354 1355 1356 1356 1353 1350 1349 1348 1347 1345 1343 1342 1340 1339 1336 1335 1332 1329 1329 1329 1330 1330 1329 1329 1330 1331 1330 1331 1333 1334 1336 1337 1339 1341 1343 1345 1346 1348 1350 1351 1352 1353 1354 1356 1357 1358 1359 1359 1360 1360 1360 1360 1360 1360
1353 1353 1354 1353 1349 1348 1347 1344 1342 1340 1337 1335 1333 1331 1330 1330 1327 1323 1319 1321 1322 1322 1321 1324 1325 1326 1326 1327 1329 1330 1332 1334 1335 1337 1339 1340 1342 1344 1346 1347 1348 1350 1351 1352 1353 1355 1355 1356 1357 1357 1358 1357 1357 1358
1352 1352 1352 1352 1348 1345 1345 1344 1340 1337 1334 1330 1326 1325 1324 1323 1320 1318 1314 1314 1314 1314 1316 1318 1319 1320 1321 1323 1325 1327 1329 1331 1332 1334 1335 1337 1338 1340 1341 1343 1345 1347 1348 1349 1351 1352 1353 1354 1355 1355 1355 1355 1354 1354
Wind_Speed
22 22 25 28 28 24 24 32 40 18 32 28 32 32 35 37 34 37 30 33 28 5 2 4 12 25 18 20 8 9 7 2 1 5 7 5 3 7 7 6 9 12 9 6 8 9 12 11 14 14 3 3 1 6
20 20 22 26 28 27 24 24 34 36 17 27 30 32 33 34 32 36 21 25 28 11 4 9 14 15 16 18 15 21 4 8 8 3 3 4 4 6 10 7 7 8 11 9 11 7 3 17 7 10 2 5 4 3
17 19 19 23 27 25 28 28 26 33 29 25 23 30 32 36 39 39 26 31 31 10 6 8 9 9 14 21 22 10 6 8 8 4 3 2 3 7 7 11 8 10 5 5 5 8 6 18 2 7 3 4 3 3
15 18 18 20 25 26 23 27 28 26 27 22 26 23 29 30 37 35 28 27 25 11 4 8 8 9 11 17 22 22 17 19 16 10 3 3 3 6 5 1 9 2 12 9 3 5 6 13 8 6 4 5 6 5
13 16 18 18 20 25 26 24 22 25 25 24 24 29 28 29 31 35 33 24 24 8 3 6 12 18 14 13 13 14 23 25 14 5 2 3 4 4 2 2 6 9 7 7 4 10 3 11 10 8 5 3 3 1
11 13 16 16 17 19 23 24 25 25 24 22 21 28 31 29 30 18 10 19 24 27 8 4 6 15 15 16 23 26 25 13 7 6 4 4 4 3 5 5 6 9 8 5 7 10 10 9 5 2 2 3 3 3
9 11 13 14 15 16 17 19 21 22 24 25 27 20 13 10 5 6 9 13 22 19 7 4 3 5 10 14 15 10 8 7 7 5 3 4 5 4 2 3 11 10 8 9 8 6 3 6 5 7 8 10 10 10
8 9 11 13 13 14 14 15 16 16 18 20 21 24 26 34 33 27 18 16 16 12 9 4 3 4 6 5 5 4 4 5 7 4 4 3 5 2 3 7 10 8 5 2 3 5 5 4 6 8 9 11 13 14
8 7 8 9 11 12 12 12 12 11 10 11 11 14 15 17 11 11 19 19 14 7 5 3 3 4 3 4 4 5 4 3 1 2 3 2 3 3 5 9 9 6 4 5 3 5 6 8 9 10 10 11 11 12
8 6 4 7 9 10 11 12 11 8 5 4 6 6 6 6 8 8 6 3 6 7 6 4 2 4 4 3 3 3 2 2 2 3 3 2 3 5 6 4 4 3 4 3 3 5 4 6 7 9 10 9 8 7
6 9 6 6 7 9 11 13 13 7 6 6 7 5 5 9 7 6 5 5 5 3 5 4 7 6 2 2 3 2 3 1 2 3 2 2 2 5 9 9 6 4 3 1 2 4 6 8 11 8 8 7 6 7
10 9 7 9 6 9 12 13 14 17 13 9 6 6 7 7 6 5 3 2 4 3 3 5 7 6 5 3 3 2 3 1 3 4 2 2 3 12 11 8 3 3 3 2 2 2 4 2 3 8 7 6 6 8
14 11 9 6 7 9 10 11 13 16 9 7 4 4 5 5 6 3 2 2 3 2 5 8 4 3 4 5 4 2 2 2 8 3 2 1 10 10 8 6 4 4 3 2 2 1 1 1 2 5 7 8 9 9
10 8 6 4 5 7 9 10 10 13 7 5 5 5 4 3 4 3 3 3 2 7 13 10 4 3 3 3 2 3 3 4 3 3 3 5 13 11 8 8 8 5 4 3 3 3 2 1 1 1 2 4 7 9
14 11 8 8 7 7 7 7 11 9 5 5 4 4 4 2 3 3 1 3 4 10 6 7 5 3 2 3 1 3 5 4 4 4 4 11 15 13 12 10 7 4 4 4 3 2 3 3 3 4 6 9 11 12
7 5 10 10 8 8 5 5 11 7 4 4 4 4 3 2 3 3 7 9 5 4 2 2 3 3 2 3 5 4 6 5 3 4 8 13 13 11 10 8 6 4 2 3 4 4 4 5 5 8 10 10 10 9
11 11 11 11 7 8 7 3 8 5 4 3 3 3 3 3 4 3 3 4 4 2 1 1 2 2 3 2 3 3 2 2 7 7 9 11 11 10 10 9 7 4 3 4 4 5 5 5 5 6 7 9 9 9
13 12 11 11 10 7 8 6 4 3 4 3 1 2 1 1 2 1 2 2 2 2 0 2 1 3 2 2 1 3 4 7 10 11 9 11 11 11 10 9 7 5 4 7 6 6 6 6 5 6 6 5 6 6
8 11 12 10 12 6 4 4 4 2 3 2 1 0 0 0 2 2 2 4 3 3 2 0 2 2 2 3 4 5 7 7 11 10 11 10 12 13 11 10 8 7 6 7 7 6 6 6 6 5 5 5 5 7
8 9 14 14 7 3 2 2 2 1 1 1 1 1 1 1 2 3 4 5 4 2 2 3 2 1 2 2 5 7 8 11 18 14 12 13 12 11 10 11 10 9 8 7 6 7 5 5 4 4 4 4 4 6
8 11 12 8 3 1 1 1 0 1 2 1 1 2 1 2 3 5 6 6 3 3 3 5 7 6 5 5 7 9 12 15 19 11 15 15 16 13 10 8 9 9 9 8 7 6 6 5 5 4 3 3 3 5
7 7 8 5 2 3 1 0 1 2 2 2 2 3 3 2 4 5 6 6 4 7 5 4 6 9 10 9 10 9 12 12 13 11 10 12 16 15 12 10 9 8 6 6 6 6 5 6 6 6 5 4 4 5
8 6 4 3 2 1 0 1 1 2 2 2 2 2 3 3 3 7 4 4 5 6 8 8 4 11 12 10 9 11 10 11 9 9 11 10 11 13 10 10 8 8 5 5 6 6 7 8 7 7 7 8 7 6
5 3 2 1 1 2 2 2 2 3 3 3 3 3 3 3 6 2 2 3 3 4 7 10 9 8 11 13 11 11 12 12 11 14 13 12 11 11 9 11 11 8 6 5 6 6 6 5 7 7 7 7 8 7
1 0 2 2 2 2 1 2 2 3 3 3 3 2 2 4 3 4 3 3 3 3 4 7 10 10 7 9 12 13 13 12 13 14 14 12 12 12 12 12 12 9 8 8 9 9 8 7 7 6 5 9 10 9
1 4 4 3 3 2 1 2 2 2 2 2 4 1 2 3 3 4 3 5 4 4 2 3 6 8 11 10 13 16 15 15 14 14 14 13 12 11 12 13 12 11 9 7 6 7 7 7 6 6 9 5 6 11
2 1 1 2 3 4 4 4 6 4 4 3 1 1 3 4 5 2 3 4 4 6 5 4 7 11 9 9 11 13 15 16 15 14 14 14 13 13 12 12 12 10 11 8 8 9 10 8 7 6 7 9 9 8
2 1 1 3 3 2 3 3 3 2 1 4 4 4 3 3 2 2 1 5 6 6 5 3 4 7 12 12 12 11 15 16 16 17 15 16 14 12 13 13 11 10 11 10 9 8 10 11 11 11 10 11 10 11
3 2 1 2 3 4 4 4 2 1 2 3 3 3 3 3 1 10 13 11 9 9 7 5 5 6 9 12 14 13 15 19 21 21 19 14 15 16 15 14 14 13 12 11 10 8 8 9 11 12 13 14 13 12
4 3 1 1 2 3 3 2 2 6 11 10 9 14 17 16 18 20 20 18 16 13 11 10 9 9 10 12 14 18 21 23 23 21 19 17 15 16 17 14 11 10 10 9 8 6 5 5 6 6 7 8 8 8
3 4 2 4 4 5 6 10 16 19 19 13 15 20 23 19 19 21 20 20 20 18 15 13 12 13 13 13 15 17 20 22 22 21 19 16 16 15 15 13 12 11 10 10 9 7 7 7 5 5 5 5 5 5
4 5 3 3 3 5 14 5 5 5 8 8 12 10 9 8 10 11 16 16 17 16 15 16 16 13 14 14 16 17 16 16 17 16 15 15 15 16 15 13 13 11 11 10 8 7 6 5 5 4 6 8 8 7
1 3 4 4 3 3 1 5 4 5 5 5 5 6 9 12 8 7 9 12 15 15 15 16 17 17 17 18 19 19 17 15 15 14 13 14 15 14 14 14 13 13 11 10 9 9 7 6 5 4 3 2 1 2
Wind_Direction
24 32 37 37 38 40 38 33 37 115 196 195 199 195 193 196 200 192 195 206 215 286 284 97 164 183 131 175 171 151 113 81 83 166 185 168 179 187 208 206 171 177 172 196 224 234 236 162 163 205 263 110 159 218
27 33 38 40 40 42 47 46 39 45 140 194 189 191 194 190 196 192 195 202 198 226 322 87 118 143 178 173 146 164 136 148 162 126 214 124 176 173 203 221 200 208 207 203 205 222 69 181 233 200 159 189 121 150
30 35 39 41 41 51 56 52 60 54 56 115 164 191 194 186 185 193 189 188 191 147 82 76 67 140 160 175 187 129 155 151 150 123 118 104 173 192 183 223 191 206 185 211 178 185 173 183 169 184 151 116 107 123
36 38 43 44 45 47 59 65 62 65 65 79 101 150 182 184 189 188 185 172 178 109 92 43 83 109 162 172 186 190 177 162 150 130 97 140 157 219 212 280 203 173 168 172 211 175 164 184 179 152 120 114 106 95
41 39 47 49 48 49 54 62 68 65 70 75 92 95 120 145 155 161 166 152 149 122 110 116 56 42 118 132 149 168 163 143 139 113 126 142 126 142 91 160 196 187 167 179 219 172 162 144 165 150 158 155 87 83
46 49 49 52 50 50 53 59 66 71 70 96 90 88 83 98 106 85 82 93 110 119 106 89 62 55 73 106 124 128 129 112 103 112 104 120 139 164 162 199 146 140 130 137 136 124 119 135 159 202 233 212 183 169
50 52 54 55 51 50 51 53 58 67 72 78 86 109 129 140 129 119 108 116 109 111 90 106 93 36 92 96 89 101 113 97 94 100 90 134 140 190 166 155 147 150 129 112 120 133 179 212 223 225 225 221 233 247
58 52 53 52 54 51 47 46 47 57 71 78 84 94 92 97 100 98 109 118 108 73 76 92 100 95 63 78 90 80 89 75 44 92 131 126 138 157 185 135 135 131 136 161 196 207 221 206 219 233 233 240 249 254
49 50 47 48 48 48 44 40 33 42 57 67 77 91 98 76 66 78 89 87 88 92 100 94 113 112 86 70 67 48 49 69 37 99 94 179 156 184 133 145 145 134 147 160 203 225 229 237 249 246 237 239 246 253
33 27 56 53 45 41 33 25 22 33 44 44 48 47 49 10 49 59 51 57 52 51 59 78 97 108 140 141 105 136 61 105 128 88 148 197 151 144 144 143 171 158 152 164 180 188 197 238 240 240 232 235 237 235
26 32 104 81 49 34 32 23 17 14 47 54 39 54 51 36 33 39 46 34 22 72 57 89 108 122 97 120 110 16 112 120 143 110 222 156 188 154 146 126 125 146 154 225 279 278 270 260 250 229 213 212 226 217
34 29 99 64 55 34 32 34 36 54 52 60 85 66 31 27 40 61 32 21 30 71 95 115 106 93 98 98 100 81 90 162 111 146 192 200 137 150 149 139 135 142 151 189 235 260 277 262 195 205 222 231 230 213
66 75 85 62 39 21 24 25 27 19 24 32 43 59 19 12 56 54 101 84 105 107 130 146 108 77 105 79 78 93 102 94 133 175 211 140 145 151 146 140 145 138 127 171 203 199 70 97 182 194 218 228 231 227
79 90 89 61 6 18 15 6 10 9 25 48 32 39 26 40 54 38 57 75 67 137 132 115 83 65 88 79 124 110 102 158 183 194 205 152 165 159 148 157 152 155 156 147 92 62 55 75 98 199 219 212 201 193
36 40 53 47 25 358 351 11 5 7 41 52 35 53 55 62 44 38 44 97 93 131 123 114 94 104 108 116 180 130 161 192 215 198 138 155 158 159 156 158 157 143 113 93 99 122 104 117 133 137 135 143 142 137
24 19 27 17 11 4 7 23 13 29 59 50 62 109 124 154 95 78 102 113 124 149 100 100 119 130 136 151 184 195 176 198 163 142 137 145 148 147 153 156 146 135 133 113 131 153 143 128 130 133 138 144 148 158
24 32 12 3 354 7 15 6 8 40 55 53 70 71 61 68 90 106 87 103 137 174 107 158 148 100 129 202 204 185 210 103 136 132 141 154 153 160 160 156 147 136 129 138 130 148 159 156 144 141 145 147 152 156
24 18 12 9 2 8 27 27 40 39 65 63 64 100 104 82 94 76 114 146 181 122 171 53 155 199 209 217 200 137 121 113 140 140 148 157 152 157 157 150 146 149 152 155 152 150 154 156 155 171 162 162 172 173
359 9 11 0 8 12 11 23 38 51 54 46 30 64 249 246 203 146 138 135 118 103 102 91 253 235 202 190 164 138 140 153 147 142 151 156 158 160 159 162 161 151 147 155 155 159 154 150 151 147 149 164 182 187
314 323 335 336 339 1 24 35 46 30 99 16 286 244 250 303 178 168 160 161 158 161 203 218 235 283 273 148 152 165 163 163 149 136 144 150 154 165 179 179 181 170 156 156 165 175 175 165 163 163 159 159 177 186
319 327 339 341 340 349 29 351 333 16 344 324 299 294 241 198 200 186 191 177 194 245 231 225 207 242 195 163 155 154 164 172 171 166 171 176 181 172 165 163 177 184 187 185 186 187 184 185 180 182 185 195 182 169
329 320 336 340 1 352 330 327 284 288 269 273 269 217 225 212 198 206 167 195 227 232 220 214 213 199 186 173 168 160 164 165 176 182 173 183 176 178 176 172 167 174 178 193 199 204 212 214 212 213 215 215 215 212
329 331 323 332 320 340 339 303 261 216 251 237 208 231 218 202 182 168 208 222 233 227 217 216 217 198 195 188 179 180 180 177 177 182 181 177 180 182 180 187 187 190 195 204 210 218 223 219 222 224 230 238 237 242
315 292 290 295 271 295 315 244 223 247 224 231 222 236 183 153 157 253 255 221 182 195 198 206 199 190 192 198 195 195 190 185 182 179 173 170 171 177 178 181 193 193 207 207 198 203 214 214 227 238 235 220 227 243
279 128 312 263 260 247 260 270 259 247 246 229 264 230 163 172 191 210 228 168 163 171 197 199 205 205 212 202 201 199 196 192 186 181 182 175 177 182 186 198 194 206 215 221 227 224 225 234 247 255 237 226 226 232
61 25 10 358 337 297 271 256 231 251 254 250 234 241 209 213 232 234 183 172 168 155 163 189 187 207 213 215 211 202 200 194 190 194 200 199 199 212 207 195 197 209 212 216 209 202 207 228 246 245 233 238 249 239
145 115 17 18 316 299 282 274 266 265 242 227 296 249 211 223 230 154 147 174 173 208 242 246 217 203 202 208 206 206 204 200 202 209 206 203 204 207 212 212 204 210 222 230 216 221 230 233 225 237 231 231 246 249
128 160 218 316 301 234 269 282 262 264 335 345 290 228 240 266 46 21 339 238 254 268 247 242 231 222 210 214 223 214 206 208 209 212 207 199 207 214 211 214 216 211 210 212 221 224 231 236 240 242 246 248 249 250
156 161 285 285 275 249 237 234 241 102 23 339 300 273 300 327 299 331 320 304 292 288 265 263 247 216 210 213 225 226 209 208 204 199 199 198 207 206 205 207 210 216 223 234 250 252 250 245 241 243 247 251 257 263
169 160 219 191 238 238 232 244 234 299 300 279 268 275 279 277 285 294 297 295 292 282 270 258 237 228 225 224 221 211 206 205 208 213 200 204 207 212 207 215 225 225 221 223 235 249 247 245 242 252 259 246 249 254
154 154 200 228 253 248 253 279 295 295 287 270 262 253 263 272 280 278 271 271 272 269 264 261 251 235 228 222 219 217 213 214 214 217 216 217 223 215 217 222 226 227 217 208 217 224 236 234 235 237 237 240 246 251
180 204 212 233 255 269 301 280 268 257 268 259 262 251 258 255 256 261 255 247 247 247 246 240 233 231 227 220 215 217 221 220 211 209 208 209 215 217 217 218 208 204 202 205 211 211 206 212 226 236 249 254 254 257
239 231 237 271 270 273 285 315 277 285 259 256 261 253 254 254 257 256 259 257 246 241 236 231 229 228 225 223 222 218 215 209 207 209 212 209 210 214 212 204 203 198 194 193 191 189 191 192 207 223 251 307 319 265